Time,TemperatureF,DewpointF,PressureIn,WindDirection,WindDirectionDegrees,WindSpeedMPH,WindSpeedGustMPH,Humidity,HourlyPrecipIn,Conditions,Clouds,dailyrainin,SoftwareType,DateUTC
2013-11-30 00:01:00,24.5,18.6,30.66,East,87,0.0,0.0,78,0.00,,---,0.00,VWS V13.01,2013-11-30 05:01:00,
2013-11-30 00:02:00,24.5,18.6,30.66,East,87,0.0,1.0,78,0.00,,---,0.00,VWS V13.01,2013-11-30 05:02:00,
2013-11-30 00:07:00,24.5,18.9,30.66,East,87,2.0,3.0,79,0.00,,---,0.00,VWS V13.01,2013-11-30 05:07:00,
2013-11-30 00:12:00,24.8,18.9,30.66,ENE,78,0.0,5.0,78,0.00,,---,0.00,VWS V13.01,2013-11-30 05:12:00,
2013-11-30 00:17:00,25.0,19.1,30.66,East,88,0.0,5.0,78,0.00,,---,0.00,VWS V13.01,2013-11-30 05:17:00,
2013-11-30 00:22:00,25.2,19.3,30.66,East,82,1.0,3.0,78,0.00,,---,0.00,VWS V13.01,2013-11-30 05:22:00,
2013-11-30 00:27:00,25.4,19.5,30.66,ESE,114,0.0,4.0,78,0.00,,---,0.00,VWS V13.01,2013-11-30 05:27:00,
2013-11-30 00:32:00,25.5,19.3,30.66,SE,126,0.0,4.0,77,0.00,,---,0.00,VWS V13.01,2013-11-30 05:32:00,
2013-11-30 00:37:00,25.7,19.5,30.65,SE,126,0.0,8.0,77,0.00,,---,0.00,VWS V13.01,2013-11-30 05:37:00,
2013-11-30 00:42:00,26.0,19.8,30.65,SE,140,3.0,5.0,77,0.00,,---,0.00,VWS V13.01,2013-11-30 05:42:00,
2013-11-30 00:47:00,26.2,20.0,30.65,SE,134,8.0,9.0,77,0.00,,---,0.00,VWS V13.01,2013-11-30 05:47:00,
2013-11-30 00:52:00,26.3,19.8,30.65,SSE,147,4.0,7.0,76,0.00,,---,0.00,VWS V13.01,2013-11-30 05:52:00,
2013-11-30 00:57:00,26.4,19.9,30.64,SE,132,1.0,10.0,76,0.00,,---,0.00,VWS V13.01,2013-11-30 05:57:00,
2013-11-30 01:02:00,26.5,20.0,30.64,East,96,3.0,8.0,76,0.00,,---,0.00,VWS V13.01,2013-11-30 06:02:00,
2013-11-30 01:07:00,26.5,20.0,30.63,East,98,2.0,9.0,76,0.00,,---,0.00,VWS V13.01,2013-11-30 06:07:00,
2013-11-30 01:12:00,26.5,20.0,30.63,SSE,150,3.0,10.0,76,0.00,,---,0.00,VWS V13.01,2013-11-30 06:12:00,
2013-11-30 01:17:00,26.6,20.1,30.63,ESE,107,2.0,11.0,76,0.00,,---,0.00,VWS V13.01,2013-11-30 06:17:00,
2013-11-30 01:22:00,26.6,19.8,30.63,SE,144,6.0,8.0,75,0.00,,---,0.00,VWS V13.01,2013-11-30 06:22:00,
2013-11-30 01:27:00,26.6,19.8,30.63,East,91,7.0,11.0,75,0.00,,---,0.00,VWS V13.01,2013-11-30 06:27:00,
2013-11-30 01:32:00,26.5,19.7,30.63,ESE,110,12.0,13.0,75,0.00,,---,0.00,VWS V13.01,2013-11-30 06:32:00,
2013-11-30 01:37:00,26.6,19.8,30.62,SE,132,7.0,13.0,75,0.00,,---,0.00,VWS V13.01,2013-11-30 06:37:00,
2013-11-30 01:42:00,26.6,19.8,30.62,East,84,2.0,10.0,75,0.00,,---,0.00,VWS V13.01,2013-11-30 06:42:00,
2013-11-30 01:47:00,26.6,19.8,30.63,SE,144,8.0,13.0,75,0.00,,---,0.00,VWS V13.01,2013-11-30 06:47:00,
2013-11-30 01:52:00,26.5,19.7,30.62,SE,126,4.0,8.0,75,0.00,,---,0.00,VWS V13.01,2013-11-30 06:52:00,
2013-11-30 01:57:00,26.4,19.9,30.62,NNE,33,0.0,11.0,76,0.00,,---,0.00,VWS V13.01,2013-11-30 06:57:00,
2013-11-30 02:02:00,26.4,19.9,30.62,ESE,103,5.0,10.0,76,0.00,,---,0.00,VWS V13.01,2013-11-30 07:02:00,
2013-11-30 02:07:00,26.5,20.0,30.62,SE,129,8.0,11.0,76,0.00,,---,0.00,VWS V13.01,2013-11-30 07:07:00,
2013-11-30 02:12:00,26.7,19.9,30.62,ESE,114,5.0,13.0,75,0.00,,---,0.00,VWS V13.01,2013-11-30 07:12:00,
2013-11-30 02:17:00,26.8,20.0,30.62,ESE,117,8.0,13.0,75,0.00,,---,0.00,VWS V13.01,2013-11-30 07:17:00,
2013-11-30 02:22:00,26.9,20.0,30.62,ESE,107,1.0,12.0,75,0.00,,---,0.00,VWS V13.01,2013-11-30 07:22:00,
2013-11-30 02:27:00,26.9,20.0,30.62,SE,140,2.0,13.0,75,0.00,,---,0.00,VWS V13.01,2013-11-30 07:27:00,
2013-11-30 02:32:00,26.8,20.0,30.62,SSE,161,5.0,14.0,75,0.00,,---,0.00,VWS V13.01,2013-11-30 07:32:00,
2013-11-30 02:37:00,26.8,20.0,30.62,East,94,1.0,21.0,75,0.00,,---,0.00,VWS V13.01,2013-11-30 07:37:00,
2013-11-30 02:42:00,26.8,20.0,30.61,SE,146,6.0,12.0,75,0.00,,---,0.00,VWS V13.01,2013-11-30 07:42:00,
2013-11-30 02:47:00,26.7,19.9,30.61,ESE,113,2.0,12.0,75,0.00,,---,0.00,VWS V13.01,2013-11-30 07:47:00,
2013-11-30 02:52:00,26.7,19.9,30.61,ESE,103,9.0,11.0,75,0.00,,---,0.00,VWS V13.01,2013-11-30 07:52:00,
2013-11-30 02:57:00,26.7,19.9,30.61,SE,142,0.0,11.0,75,0.00,,---,0.00,VWS V13.01,2013-11-30 07:57:00,
2013-11-30 03:02:00,26.7,19.9,30.61,SSE,167,4.0,10.0,75,0.00,,---,0.00,VWS V13.01,2013-11-30 08:02:00,
2013-11-30 03:07:00,26.7,19.9,30.61,SSW,211,2.0,10.0,75,0.00,,---,0.00,VWS V13.01,2013-11-30 08:07:00,
2013-11-30 03:12:00,26.6,19.8,30.61,South,188,3.0,10.0,75,0.00,,---,0.00,VWS V13.01,2013-11-30 08:12:00,
2013-11-30 03:17:00,26.6,19.8,30.60,SE,136,2.0,10.0,75,0.00,,---,0.00,VWS V13.01,2013-11-30 08:17:00,
2013-11-30 03:22:00,26.6,19.8,30.60,SE,139,6.0,16.0,75,0.00,,---,0.00,VWS V13.01,2013-11-30 08:22:00,
2013-11-30 03:27:00,26.6,19.8,30.61,SSE,150,12.0,16.0,75,0.00,,---,0.00,VWS V13.01,2013-11-30 08:27:00,
2013-11-30 03:32:00,26.6,19.8,30.61,SW,219,2.0,7.0,75,0.00,,---,0.00,VWS V13.01,2013-11-30 08:32:00,
2013-11-30 03:37:00,26.6,19.8,30.61,SSW,198,1.0,13.0,75,0.00,,---,0.00,VWS V13.01,2013-11-30 08:37:00,
2013-11-30 03:42:00,26.6,19.8,30.61,South,169,1.0,7.0,75,0.00,,---,0.00,VWS V13.01,2013-11-30 08:42:00,
2013-11-30 03:47:00,26.6,19.8,30.60,SSE,165,5.0,9.0,75,0.00,,---,0.00,VWS V13.01,2013-11-30 08:47:00,
2013-11-30 03:52:00,26.5,19.7,30.60,SE,132,7.0,10.0,75,0.00,,---,0.00,VWS V13.01,2013-11-30 08:52:00,
2013-11-30 03:57:00,26.5,20.0,30.60,SSE,158,4.0,10.0,76,0.00,,---,0.00,VWS V13.01,2013-11-30 08:57:00,
2013-11-30 04:02:00,26.5,20.0,30.60,ESE,123,7.0,10.0,76,0.00,,---,0.00,VWS V13.01,2013-11-30 09:02:00,
2013-11-30 04:07:00,26.5,20.0,30.60,SE,133,2.0,13.0,76,0.00,,---,0.00,VWS V13.01,2013-11-30 09:07:00,
2013-11-30 04:12:00,26.5,19.7,30.60,South,174,3.0,7.0,75,0.00,,---,0.00,VWS V13.01,2013-11-30 09:12:00,
2013-11-30 04:17:00,26.5,19.7,30.60,SSE,159,3.0,11.0,75,0.00,,---,0.00,VWS V13.01,2013-11-30 09:17:00,
2013-11-30 04:22:00,26.5,19.7,30.60,SE,135,5.0,11.0,75,0.00,,---,0.00,VWS V13.01,2013-11-30 09:22:00,
2013-11-30 04:27:00,26.5,19.7,30.60,SSW,207,7.0,16.0,75,0.00,,---,0.00,VWS V13.01,2013-11-30 09:27:00,
2013-11-30 04:32:00,26.5,19.7,30.59,SE,139,7.0,10.0,75,0.00,,---,0.00,VWS V13.01,2013-11-30 09:32:00,
2013-11-30 04:37:00,26.5,19.7,30.59,SE,125,8.0,13.0,75,0.00,,---,0.00,VWS V13.01,2013-11-30 09:37:00,
2013-11-30 04:42:00,26.5,19.7,30.59,ESE,121,3.0,11.0,75,0.00,,---,0.00,VWS V13.01,2013-11-30 09:42:00,
2013-11-30 04:47:00,26.5,19.7,30.59,SSE,147,0.0,17.0,75,0.00,,---,0.00,VWS V13.01,2013-11-30 09:47:00,
2013-11-30 04:52:00,26.5,19.7,30.58,SW,214,9.0,13.0,75,0.00,,---,0.00,VWS V13.01,2013-11-30 09:52:00,
2013-11-30 04:57:00,26.6,19.8,30.58,South,187,4.0,13.0,75,0.00,,---,0.00,VWS V13.01,2013-11-30 09:57:00,
2013-11-30 05:02:00,26.6,19.8,30.58,SSW,212,5.0,10.0,75,0.00,,---,0.00,VWS V13.01,2013-11-30 10:02:00,
2013-11-30 05:07:00,26.5,19.7,30.58,South,189,4.0,14.0,75,0.00,,---,0.00,VWS V13.01,2013-11-30 10:07:00,
2013-11-30 05:12:00,26.5,19.7,30.58,SSE,147,3.0,9.0,75,0.00,,---,0.00,VWS V13.01,2013-11-30 10:12:00,
2013-11-30 05:17:00,26.5,19.4,30.58,SSE,156,1.0,11.0,74,0.00,,---,0.00,VWS V13.01,2013-11-30 10:17:00,
2013-11-30 05:22:00,26.5,19.4,30.58,SE,132,1.0,9.0,74,0.00,,---,0.00,VWS V13.01,2013-11-30 10:22:00,
2013-11-30 05:27:00,26.5,19.4,30.58,South,173,4.0,9.0,74,0.00,,---,0.00,VWS V13.01,2013-11-30 10:27:00,
2013-11-30 05:32:00,26.5,19.4,30.58,ESE,107,10.0,11.0,74,0.00,,---,0.00,VWS V13.01,2013-11-30 10:32:00,
2013-11-30 05:37:00,26.5,19.4,30.58,SE,124,3.0,13.0,74,0.00,,---,0.00,VWS V13.01,2013-11-30 10:37:00,
2013-11-30 05:42:00,26.5,19.4,30.58,ESE,122,0.0,13.0,74,0.00,,---,0.00,VWS V13.01,2013-11-30 10:42:00,
2013-11-30 05:47:00,26.5,19.4,30.58,SE,127,5.0,13.0,74,0.00,,---,0.00,VWS V13.01,2013-11-30 10:47:00,
2013-11-30 05:52:00,26.5,19.4,30.58,SE,126,4.0,16.0,74,0.00,,---,0.00,VWS V13.01,2013-11-30 10:52:00,
2013-11-30 05:57:00,26.5,19.4,30.58,SE,136,0.0,16.0,74,0.00,,---,0.00,VWS V13.01,2013-11-30 10:57:00,
2013-11-30 06:02:00,26.6,19.4,30.58,South,169,1.0,15.0,74,0.00,,---,0.00,VWS V13.01,2013-11-30 11:02:00,
2013-11-30 06:07:00,26.6,19.4,30.57,SSE,163,6.0,18.0,74,0.00,,---,0.00,VWS V13.01,2013-11-30 11:07:00,
2013-11-30 06:12:00,26.7,19.2,30.57,SSE,148,4.0,12.0,73,0.00,,---,0.00,VWS V13.01,2013-11-30 11:12:00,
2013-11-30 06:17:00,26.7,19.2,30.57,SSE,150,5.0,13.0,73,0.00,,---,0.00,VWS V13.01,2013-11-30 11:17:00,
2013-11-30 06:22:00,26.7,19.2,30.57,SSE,159,4.0,15.0,73,0.00,,---,0.00,VWS V13.01,2013-11-30 11:22:00,
2013-11-30 06:27:00,26.8,19.3,30.57,SSE,158,9.0,15.0,73,0.00,,---,0.00,VWS V13.01,2013-11-30 11:27:00,
2013-11-30 06:32:00,26.8,19.3,30.57,South,179,6.0,11.0,73,0.00,,---,0.00,VWS V13.01,2013-11-30 11:32:00,
2013-11-30 06:37:00,26.7,19.2,30.57,ESE,123,3.0,11.0,73,0.00,,---,0.00,VWS V13.01,2013-11-30 11:37:00,
2013-11-30 06:42:00,26.7,19.2,30.57,SE,139,5.0,13.0,73,0.00,,---,0.00,VWS V13.01,2013-11-30 11:42:00,
2013-11-30 06:47:00,26.7,19.2,30.57,SSE,165,6.0,16.0,73,0.00,,---,0.00,VWS V13.01,2013-11-30 11:47:00,
2013-11-30 06:52:00,26.7,19.2,30.56,ESE,119,4.0,12.0,73,0.00,,---,0.00,VWS V13.01,2013-11-30 11:52:00,
2013-11-30 06:57:00,26.7,19.2,30.56,SSE,158,8.0,12.0,73,0.00,,---,0.00,VWS V13.01,2013-11-30 11:57:00,
2013-11-30 07:02:00,26.8,19.3,30.56,SE,135,10.0,15.0,73,0.00,,---,0.00,VWS V13.01,2013-11-30 12:02:00,
2013-11-30 07:07:00,26.9,19.4,30.56,SE,127,16.0,18.0,73,0.00,,---,0.00,VWS V13.01,2013-11-30 12:07:00,
2013-11-30 07:12:00,26.9,19.4,30.56,SE,135,4.0,16.0,73,0.00,,---,0.00,VWS V13.01,2013-11-30 12:12:00,
2013-11-30 07:17:00,26.9,19.1,30.56,SSE,163,3.0,16.0,72,0.00,,---,0.00,VWS V13.01,2013-11-30 12:17:00,
2013-11-30 07:22:00,26.9,19.1,30.56,SE,134,5.0,11.0,72,0.00,,---,0.00,VWS V13.01,2013-11-30 12:22:00,
2013-11-30 07:27:00,26.9,19.1,30.56,SSE,164,4.0,16.0,72,0.00,,---,0.00,VWS V13.01,2013-11-30 12:27:00,
2013-11-30 07:32:00,27.0,19.2,30.56,SE,146,1.0,14.0,72,0.00,,---,0.00,VWS V13.01,2013-11-30 12:32:00,
2013-11-30 07:37:00,27.0,19.2,30.56,South,177,11.0,14.0,72,0.00,,---,0.00,VWS V13.01,2013-11-30 12:37:00,
2013-11-30 07:42:00,27.0,19.2,30.55,SSE,155,2.0,12.0,72,0.00,,---,0.00,VWS V13.01,2013-11-30 12:42:00,
2013-11-30 07:47:00,27.1,19.3,30.55,South,186,5.0,13.0,72,0.00,,---,0.00,VWS V13.01,2013-11-30 12:47:00,
2013-11-30 07:52:00,27.1,19.3,30.55,SSW,198,5.0,17.0,72,0.00,,---,0.00,VWS V13.01,2013-11-30 12:52:00,
2013-11-30 07:57:00,27.2,19.4,30.55,SE,138,7.0,17.0,72,0.00,,---,0.00,VWS V13.01,2013-11-30 12:57:00,
2013-11-30 08:02:00,27.3,19.5,30.55,South,170,5.0,11.0,72,0.00,,---,0.00,VWS V13.01,2013-11-30 13:02:00,
2013-11-30 08:07:00,27.4,19.2,30.55,SSW,203,7.0,17.0,71,0.00,,---,0.00,VWS V13.01,2013-11-30 13:07:00,
2013-11-30 08:12:00,27.4,19.2,30.55,SSE,161,3.0,12.0,71,0.00,,---,0.00,VWS V13.01,2013-11-30 13:12:00,
2013-11-30 08:17:00,27.4,19.2,30.55,ESE,113,2.0,16.0,71,0.00,,---,0.00,VWS V13.01,2013-11-30 13:17:00,
2013-11-30 08:22:00,27.5,19.4,30.55,SSE,157,5.0,12.0,71,0.00,,---,0.00,VWS V13.01,2013-11-30 13:22:00,
2013-11-30 08:27:00,27.5,19.4,30.55,SSE,153,2.0,12.0,71,0.00,,---,0.00,VWS V13.01,2013-11-30 13:27:00,
2013-11-30 08:32:00,27.6,19.4,30.55,SE,142,6.0,14.0,71,0.00,,---,0.00,VWS V13.01,2013-11-30 13:32:00,
2013-11-30 08:37:00,27.7,19.5,30.54,SE,136,12.0,18.0,71,0.00,,---,0.00,VWS V13.01,2013-11-30 13:37:00,
2013-11-30 08:42:00,27.8,19.3,30.54,SE,142,4.0,18.0,70,0.00,,---,0.00,VWS V13.01,2013-11-30 13:42:00,
2013-11-30 08:47:00,28.0,19.5,30.54,SE,127,6.0,18.0,70,0.00,,---,0.00,VWS V13.01,2013-11-30 13:47:00,
2013-11-30 08:52:00,28.1,19.6,30.54,South,188,7.0,10.0,70,0.00,,---,0.00,VWS V13.01,2013-11-30 13:52:00,
2013-11-30 08:57:00,28.2,19.7,30.54,SSW,200,2.0,16.0,70,0.00,,---,0.00,VWS V13.01,2013-11-30 13:57:00,
2013-11-30 09:02:00,28.4,19.9,30.54,ESE,104,14.0,14.0,70,0.00,,---,0.00,VWS V13.01,2013-11-30 14:02:00,
2013-11-30 09:07:00,28.7,19.8,30.54,ESE,111,5.0,16.0,69,0.00,,---,0.00,VWS V13.01,2013-11-30 14:07:00,
2013-11-30 09:12:00,28.9,20.0,30.53,South,181,6.0,13.0,69,0.00,,---,0.00,VWS V13.01,2013-11-30 14:12:00,
2013-11-30 09:17:00,29.1,20.2,30.53,SE,137,13.0,18.0,69,0.00,,---,0.00,VWS V13.01,2013-11-30 14:17:00,
2013-11-30 09:22:00,29.3,20.1,30.53,South,180,8.0,14.0,68,0.00,,---,0.00,VWS V13.01,2013-11-30 14:22:00,
2013-11-30 09:27:00,29.5,20.3,30.53,East,90,11.0,17.0,68,0.00,,---,0.00,VWS V13.01,2013-11-30 14:27:00,
2013-11-30 09:32:00,29.7,20.1,30.53,SSE,161,4.0,16.0,67,0.00,,---,0.00,VWS V13.01,2013-11-30 14:32:00,
2013-11-30 09:37:00,29.9,20.3,30.53,ESE,120,7.0,17.0,67,0.00,,---,0.00,VWS V13.01,2013-11-30 14:37:00,
2013-11-30 09:42:00,30.0,20.4,30.53,SSE,158,6.0,16.0,67,0.00,,---,0.00,VWS V13.01,2013-11-30 14:42:00,
2013-11-30 09:47:00,30.1,20.5,30.53,SSE,163,8.0,16.0,67,0.00,,---,0.00,VWS V13.01,2013-11-30 14:47:00,
2013-11-30 09:52:00,30.2,20.6,30.53,SE,142,4.0,13.0,67,0.00,,---,0.00,VWS V13.01,2013-11-30 14:52:00,
2013-11-30 09:57:00,30.3,20.7,30.53,SSW,193,4.0,13.0,67,0.00,,---,0.00,VWS V13.01,2013-11-30 14:57:00,
2013-11-30 10:02:00,30.5,20.5,30.52,SE,144,2.0,12.0,66,0.00,,---,0.00,VWS V13.01,2013-11-30 15:02:00,
2013-11-30 10:07:00,30.8,21.1,30.53,SW,229,3.0,12.0,67,0.00,,---,0.00,VWS V13.01,2013-11-30 15:07:00,
2013-11-30 10:12:00,31.1,21.1,30.52,SE,144,4.0,14.0,66,0.00,,---,0.00,VWS V13.01,2013-11-30 15:12:00,
2013-11-30 10:17:00,31.4,21.0,30.52,SE,126,6.0,14.0,65,0.00,,---,0.00,VWS V13.01,2013-11-30 15:17:00,
2013-11-30 10:22:00,31.8,21.8,30.52,South,173,2.0,9.0,66,0.00,,---,0.00,VWS V13.01,2013-11-30 15:22:00,
2013-11-30 10:27:00,32.4,21.6,30.52,SSE,163,4.0,9.0,64,0.00,,---,0.00,VWS V13.01,2013-11-30 15:27:00,
2013-11-30 10:32:00,32.9,22.1,30.52,SE,144,4.0,7.0,64,0.00,,---,0.00,VWS V13.01,2013-11-30 15:32:00,
2013-11-30 10:37:00,33.3,22.1,30.52,SE,132,6.0,9.0,63,0.00,,---,0.00,VWS V13.01,2013-11-30 15:37:00,
2013-11-30 10:42:00,33.7,22.1,30.52,SE,135,3.0,8.0,62,0.00,,---,0.00,VWS V13.01,2013-11-30 15:42:00,
2013-11-30 10:47:00,34.2,22.5,30.52,ESE,111,2.0,10.0,62,0.00,,---,0.00,VWS V13.01,2013-11-30 15:47:00,
2013-11-30 10:52:00,34.6,22.5,30.52,SE,137,5.0,10.0,61,0.00,,---,0.00,VWS V13.01,2013-11-30 15:52:00,
2013-11-30 10:57:00,34.8,22.3,30.51,SSE,151,1.0,10.0,60,0.00,,---,0.00,VWS V13.01,2013-11-30 15:57:00,
2013-11-30 11:02:00,35.0,22.5,30.51,ESE,116,4.0,9.0,60,0.00,,---,0.00,VWS V13.01,2013-11-30 16:02:00,
2013-11-30 11:07:00,35.1,22.6,30.51,SE,127,2.0,10.0,60,0.00,,---,0.00,VWS V13.01,2013-11-30 16:07:00,
2013-11-30 11:12:00,35.0,22.1,30.51,East,101,7.0,13.0,59,0.00,,---,0.00,VWS V13.01,2013-11-30 16:12:00,
2013-11-30 11:17:00,34.6,22.2,30.51,ESE,123,4.0,13.0,60,0.00,,---,0.00,VWS V13.01,2013-11-30 16:17:00,
2013-11-30 11:22:00,34.5,22.1,30.51,SE,136,4.0,9.0,60,0.00,,---,0.00,VWS V13.01,2013-11-30 16:22:00,
2013-11-30 11:27:00,34.6,22.5,30.51,ESE,119,2.0,12.0,61,0.00,,---,0.00,VWS V13.01,2013-11-30 16:27:00,
2013-11-30 11:32:00,34.7,22.6,30.50,SSE,155,1.0,7.0,61,0.00,,---,0.00,VWS V13.01,2013-11-30 16:32:00,
2013-11-30 11:37:00,34.7,22.6,30.50,East,101,5.0,9.0,61,0.00,,---,0.00,VWS V13.01,2013-11-30 16:37:00,
2013-11-30 11:42:00,34.8,23.1,30.50,ESE,119,2.0,7.0,62,0.00,,---,0.00,VWS V13.01,2013-11-30 16:42:00,
2013-11-30 11:47:00,34.9,23.2,30.50,ESE,115,4.0,7.0,62,0.00,,---,0.00,VWS V13.01,2013-11-30 16:47:00,
2013-11-30 11:52:00,34.9,22.8,30.49,SE,141,5.0,9.0,61,0.00,,---,0.00,VWS V13.01,2013-11-30 16:52:00,
2013-11-30 11:57:00,34.7,23.0,30.49,SE,142,5.0,9.0,62,0.00,,---,0.00,VWS V13.01,2013-11-30 16:57:00,
2013-11-30 12:02:00,34.7,23.0,30.49,SSE,155,5.0,10.0,62,0.00,,---,0.00,VWS V13.01,2013-11-30 17:02:00,
2013-11-30 12:07:00,34.7,23.0,30.48,SSE,157,7.0,10.0,62,0.00,,---,0.00,VWS V13.01,2013-11-30 17:07:00,
2013-11-30 12:12:00,34.7,23.0,30.48,SSE,155,10.0,13.0,62,0.00,,---,0.00,VWS V13.01,2013-11-30 17:12:00,
2013-11-30 12:17:00,34.9,23.2,30.47,SE,143,4.0,13.0,62,0.00,,---,0.00,VWS V13.01,2013-11-30 17:17:00,
2013-11-30 12:22:00,35.1,23.0,30.47,SE,130,9.0,14.0,61,0.00,,---,0.00,VWS V13.01,2013-11-30 17:22:00,
2013-11-30 12:27:00,35.4,23.7,30.46,ESE,114,2.0,14.0,62,0.00,,---,0.00,VWS V13.01,2013-11-30 17:27:00,
2013-11-30 12:32:00,35.9,23.8,30.46,SE,129,5.0,8.0,61,0.00,,---,0.00,VWS V13.01,2013-11-30 17:32:00,
2013-11-30 12:37:00,36.5,24.0,30.46,SE,134,5.0,10.0,60,0.00,,---,0.00,VWS V13.01,2013-11-30 17:37:00,
2013-11-30 12:42:00,37.3,24.3,30.46,SE,128,5.0,9.0,59,0.00,,---,0.00,VWS V13.01,2013-11-30 17:42:00,
2013-11-30 12:47:00,37.6,24.2,30.45,SE,144,5.0,10.0,58,0.00,,---,0.00,VWS V13.01,2013-11-30 17:47:00,
2013-11-30 12:52:00,37.9,24.9,30.45,SE,134,5.0,6.0,59,0.00,,---,0.00,VWS V13.01,2013-11-30 17:52:00,
2013-11-30 12:57:00,38.2,24.3,30.45,SSE,167,3.0,14.0,57,0.00,,---,0.00,VWS V13.01,2013-11-30 17:57:00,
2013-11-30 13:02:00,38.2,23.9,30.44,SSE,157,7.0,16.0,56,0.00,,---,0.00,VWS V13.01,2013-11-30 18:02:00,
2013-11-30 13:07:00,38.0,24.1,30.43,SE,142,7.0,16.0,57,0.00,,---,0.00,VWS V13.01,2013-11-30 18:07:00,
2013-11-30 13:12:00,37.9,24.5,30.43,SE,132,7.0,11.0,58,0.00,,---,0.00,VWS V13.01,2013-11-30 18:12:00,
2013-11-30 13:17:00,37.9,24.5,30.43,SE,135,6.0,11.0,58,0.00,,---,0.00,VWS V13.01,2013-11-30 18:17:00,
2013-11-30 13:22:00,37.9,24.0,30.42,SE,138,7.0,10.0,57,0.00,,---,0.00,VWS V13.01,2013-11-30 18:22:00,
2013-11-30 13:27:00,37.8,24.4,30.42,SSE,148,2.0,10.0,58,0.00,,---,0.00,VWS V13.01,2013-11-30 18:27:00,
2013-11-30 13:32:00,37.7,24.3,30.42,SSE,161,9.0,12.0,58,0.00,,---,0.00,VWS V13.01,2013-11-30 18:32:00,
2013-11-30 13:37:00,37.6,24.6,30.42,SSE,160,2.0,12.0,59,0.00,,---,0.00,VWS V13.01,2013-11-30 18:37:00,
2013-11-30 13:42:00,37.7,24.7,30.41,SSE,148,12.0,13.0,59,0.00,,---,0.00,VWS V13.01,2013-11-30 18:42:00,
2013-11-30 13:47:00,37.6,24.2,30.41,ESE,114,3.0,13.0,58,0.00,,---,0.00,VWS V13.01,2013-11-30 18:47:00,
2013-11-30 13:52:00,37.5,24.5,30.41,SE,144,10.0,12.0,59,0.00,,---,0.00,VWS V13.01,2013-11-30 18:52:00,
2013-11-30 13:57:00,37.3,24.3,30.41,SSE,152,5.0,12.0,59,0.00,,---,0.00,VWS V13.01,2013-11-30 18:57:00,
2013-11-30 14:02:00,37.2,24.6,30.41,SE,129,7.0,13.0,60,0.00,,---,0.00,VWS V13.01,2013-11-30 19:02:00,
2013-11-30 14:07:00,37.2,24.6,30.40,SE,126,2.0,13.0,60,0.00,,---,0.00,VWS V13.01,2013-11-30 19:07:00,
2013-11-30 14:12:00,37.2,24.6,30.40,SE,144,2.0,7.0,60,0.00,,---,0.00,VWS V13.01,2013-11-30 19:12:00,
2013-11-30 14:17:00,37.2,25.0,30.40,SSE,148,6.0,10.0,61,0.00,,---,0.00,VWS V13.01,2013-11-30 19:17:00,
2013-11-30 14:22:00,37.2,24.6,30.40,SSE,148,1.0,7.0,60,0.00,,---,0.00,VWS V13.01,2013-11-30 19:22:00,
2013-11-30 14:27:00,37.3,24.7,30.39,SSE,148,2.0,9.0,60,0.00,,---,0.00,VWS V13.01,2013-11-30 19:27:00,
2013-11-30 14:32:00,37.5,24.9,30.39,ESE,119,4.0,11.0,60,0.00,,---,0.00,VWS V13.01,2013-11-30 19:32:00,
2013-11-30 14:37:00,37.4,24.8,30.38,SE,140,9.0,11.0,60,0.00,,---,0.00,VWS V13.01,2013-11-30 19:37:00,
2013-11-30 14:42:00,37.2,25.0,30.38,SSE,149,3.0,13.0,61,0.00,,---,0.00,VWS V13.01,2013-11-30 19:42:00,
2013-11-30 14:47:00,37.0,24.8,30.38,SE,126,3.0,13.0,61,0.00,,---,0.00,VWS V13.01,2013-11-30 19:47:00,
2013-11-30 14:52:00,36.8,24.6,30.38,SE,140,4.0,12.0,61,0.00,,---,0.00,VWS V13.01,2013-11-30 19:52:00,
2013-11-30 14:57:00,36.6,24.8,30.37,SE,138,6.0,12.0,62,0.00,,---,0.00,VWS V13.01,2013-11-30 19:57:00,
2013-11-30 15:02:00,36.7,24.9,30.37,SE,130,3.0,10.0,62,0.00,,---,0.00,VWS V13.01,2013-11-30 20:02:00,
2013-11-30 15:07:00,36.7,24.9,30.37,SE,132,6.0,10.0,62,0.00,,---,0.00,VWS V13.01,2013-11-30 20:07:00,
2013-11-30 15:12:00,36.6,24.8,30.37,SSE,150,4.0,9.0,62,0.00,,---,0.00,VWS V13.01,2013-11-30 20:12:00,
2013-11-30 15:17:00,36.4,24.6,30.38,SE,138,8.0,9.0,62,0.00,,---,0.00,VWS V13.01,2013-11-30 20:17:00,
2013-11-30 15:22:00,36.2,24.5,30.37,ESE,119,3.0,6.0,62,0.00,,---,0.00,VWS V13.01,2013-11-30 20:22:00,
2013-11-30 15:27:00,36.3,24.9,30.37,SSE,148,8.0,8.0,63,0.00,,---,0.00,VWS V13.01,2013-11-30 20:27:00,
2013-11-30 15:32:00,36.4,25.0,30.37,ESE,112,2.0,6.0,63,0.00,,---,0.00,VWS V13.01,2013-11-30 20:32:00,
2013-11-30 15:37:00,36.3,24.5,30.36,SSE,165,3.0,8.0,62,0.00,,---,0.00,VWS V13.01,2013-11-30 20:37:00,
2013-11-30 15:42:00,36.2,24.8,30.36,SE,136,2.0,8.0,63,0.00,,---,0.00,VWS V13.01,2013-11-30 20:42:00,
2013-11-30 15:47:00,36.1,24.7,30.36,SE,132,3.0,8.0,63,0.00,,---,0.00,VWS V13.01,2013-11-30 20:47:00,
2013-11-30 15:52:00,36.2,24.8,30.36,SE,137,5.0,6.0,63,0.00,,---,0.00,VWS V13.01,2013-11-30 20:52:00,
2013-11-30 15:57:00,36.3,24.9,30.35,ESE,117,1.0,9.0,63,0.00,,---,0.00,VWS V13.01,2013-11-30 20:57:00,
2013-11-30 16:02:00,36.4,25.0,30.35,SE,134,1.0,12.0,63,0.00,,---,0.00,VWS V13.01,2013-11-30 21:02:00,
2013-11-30 16:07:00,36.5,25.1,30.35,ESE,119,4.0,12.0,63,0.00,,---,0.00,VWS V13.01,2013-11-30 21:07:00,
2013-11-30 16:12:00,36.5,25.1,30.35,SE,138,6.0,8.0,63,0.00,,---,0.00,VWS V13.01,2013-11-30 21:12:00,
2013-11-30 16:17:00,36.7,24.9,30.35,SSE,158,8.0,11.0,62,0.00,,---,0.00,VWS V13.01,2013-11-30 21:17:00,
2013-11-30 16:22:00,36.9,25.1,30.34,SSE,157,5.0,9.0,62,0.00,,---,0.00,VWS V13.01,2013-11-30 21:22:00,
2013-11-30 16:27:00,36.9,25.1,30.35,SSE,154,4.0,13.0,62,0.00,,---,0.00,VWS V13.01,2013-11-30 21:27:00,
2013-11-30 16:32:00,36.8,25.0,30.34,SE,135,4.0,5.0,62,0.00,,---,0.00,VWS V13.01,2013-11-30 21:32:00,
2013-11-30 16:37:00,36.6,24.8,30.34,ESE,116,4.0,10.0,62,0.00,,---,0.00,VWS V13.01,2013-11-30 21:37:00,
2013-11-30 16:42:00,36.3,24.9,30.34,SE,128,1.0,10.0,63,0.00,,---,0.00,VWS V13.01,2013-11-30 21:42:00,
2013-11-30 16:47:00,35.9,24.5,30.34,SE,137,4.0,10.0,63,0.00,,---,0.00,VWS V13.01,2013-11-30 21:47:00,
2013-11-30 16:52:00,35.8,24.5,30.34,SE,144,4.0,8.0,63,0.00,,---,0.00,VWS V13.01,2013-11-30 21:52:00,
2013-11-30 16:57:00,35.5,24.5,30.34,SSE,163,1.0,9.0,64,0.00,,---,0.00,VWS V13.01,2013-11-30 21:57:00,
2013-11-30 17:02:00,35.3,24.7,30.34,SE,128,6.0,11.0,65,0.00,,---,0.00,VWS V13.01,2013-11-30 22:02:00,
2013-11-30 17:07:00,35.0,24.4,30.34,SSE,148,2.0,11.0,65,0.00,,---,0.00,VWS V13.01,2013-11-30 22:07:00,
2013-11-30 17:12:00,34.8,24.6,30.33,SSE,150,2.0,7.0,66,0.00,,---,0.00,VWS V13.01,2013-11-30 22:12:00,
2013-11-30 17:17:00,34.7,24.5,30.33,SSE,153,3.0,7.0,66,0.00,,---,0.00,VWS V13.01,2013-11-30 22:17:00,
2013-11-30 17:22:00,34.6,24.4,30.33,SSE,167,2.0,7.0,66,0.00,,---,0.00,VWS V13.01,2013-11-30 22:22:00,
2013-11-30 17:27:00,34.6,24.4,30.33,SSE,161,1.0,7.0,66,0.00,,---,0.00,VWS V13.01,2013-11-30 22:27:00,
2013-11-30 17:32:00,34.5,24.3,30.33,ESE,122,0.0,7.0,66,0.00,,---,0.00,VWS V13.01,2013-11-30 22:32:00,
2013-11-30 17:37:00,34.4,24.6,30.33,SSE,157,4.0,8.0,67,0.00,,---,0.00,VWS V13.01,2013-11-30 22:37:00,
2013-11-30 17:42:00,34.4,24.6,30.33,SSE,159,3.0,7.0,67,0.00,,---,0.00,VWS V13.01,2013-11-30 22:42:00,
2013-11-30 17:47:00,34.4,24.6,30.33,SSE,166,1.0,7.0,67,0.00,,---,0.00,VWS V13.01,2013-11-30 22:47:00,
2013-11-30 17:52:00,34.4,24.6,30.32,SSE,163,1.0,5.0,67,0.00,,---,0.00,VWS V13.01,2013-11-30 22:52:00,
2013-11-30 17:57:00,34.4,24.6,30.32,SE,124,2.0,8.0,67,0.00,,---,0.00,VWS V13.01,2013-11-30 22:57:00,
2013-11-30 18:02:00,34.4,24.6,30.32,SE,140,4.0,6.0,67,0.00,,---,0.00,VWS V13.01,2013-11-30 23:02:00,
2013-11-30 18:07:00,34.3,24.5,30.32,SSE,155,3.0,7.0,67,0.00,,---,0.00,VWS V13.01,2013-11-30 23:07:00,
2013-11-30 18:12:00,34.1,24.3,30.32,SE,124,5.0,6.0,67,0.00,,---,0.00,VWS V13.01,2013-11-30 23:12:00,
2013-11-30 18:17:00,34.0,24.6,30.32,SE,134,5.0,7.0,68,0.00,,---,0.00,VWS V13.01,2013-11-30 23:17:00,
2013-11-30 18:22:00,33.9,24.5,30.32,SE,145,1.0,4.0,68,0.00,,---,0.00,VWS V13.01,2013-11-30 23:22:00,
2013-11-30 18:27:00,33.8,24.4,30.32,South,172,4.0,5.0,68,0.00,,---,0.00,VWS V13.01,2013-11-30 23:27:00,
2013-11-30 18:32:00,33.7,24.6,30.31,SE,144,6.0,8.0,69,0.00,,---,0.00,VWS V13.01,2013-11-30 23:32:00,
2013-11-30 18:37:00,33.7,24.6,30.31,SE,133,3.0,10.0,69,0.00,,---,0.00,VWS V13.01,2013-11-30 23:37:00,
2013-11-30 18:42:00,33.7,24.6,30.31,SE,137,2.0,6.0,69,0.00,,---,0.00,VWS V13.01,2013-11-30 23:42:00,
2013-11-30 18:47:00,33.6,24.5,30.31,SE,128,0.0,6.0,69,0.00,,---,0.00,VWS V13.01,2013-11-30 23:47:00,
2013-11-30 18:52:00,33.5,24.4,30.31,SE,140,0.0,4.0,69,0.00,,---,0.00,VWS V13.01,2013-11-30 23:52:00,
2013-11-30 18:57:00,33.5,24.4,30.31,SSE,150,2.0,5.0,69,0.00,,---,0.00,VWS V13.01,2013-11-30 23:57:00,
2013-11-30 19:02:00,33.5,24.4,30.31,SSE,150,0.0,5.0,69,0.00,,---,0.00,VWS V13.01,2013-12-01 00:02:00,
2013-11-30 19:07:00,33.5,24.4,30.31,SE,134,1.0,5.0,69,0.00,,---,0.00,VWS V13.01,2013-12-01 00:07:00,
2013-11-30 19:12:00,33.4,24.7,30.31,SE,128,1.0,1.0,70,0.00,,---,0.00,VWS V13.01,2013-12-01 00:12:00,
2013-11-30 19:17:00,33.3,24.2,30.31,SE,139,2.0,4.0,69,0.00,,---,0.00,VWS V13.01,2013-12-01 00:17:00,
2013-11-30 19:22:00,33.2,24.5,30.31,SE,129,2.0,5.0,70,0.00,,---,0.00,VWS V13.01,2013-12-01 00:22:00,
2013-11-30 19:27:00,33.2,24.5,30.31,ESE,115,1.0,6.0,70,0.00,,---,0.00,VWS V13.01,2013-12-01 00:27:00,
2013-11-30 19:32:00,33.3,24.6,30.31,SE,142,3.0,6.0,70,0.00,,---,0.00,VWS V13.01,2013-12-01 00:32:00,
2013-11-30 19:37:00,33.4,24.7,30.31,ESE,119,3.0,8.0,70,0.00,,---,0.00,VWS V13.01,2013-12-01 00:37:00,
2013-11-30 19:42:00,33.5,24.8,30.31,SSE,153,5.0,7.0,70,0.00,,---,0.00,VWS V13.01,2013-12-01 00:42:00,
2013-11-30 19:47:00,33.7,24.6,30.31,SSE,150,5.0,7.0,69,0.00,,---,0.00,VWS V13.01,2013-12-01 00:47:00,
2013-11-30 19:52:00,33.7,24.6,30.31,ESE,117,4.0,5.0,69,0.00,,---,0.00,VWS V13.01,2013-12-01 00:52:00,
2013-11-30 19:57:00,33.7,24.6,30.31,SE,146,1.0,8.0,69,0.00,,---,0.00,VWS V13.01,2013-12-01 00:57:00,
2013-11-30 20:02:00,33.7,24.6,30.31,SE,129,1.0,6.0,69,0.00,,---,0.00,VWS V13.01,2013-12-01 01:02:00,
2013-11-30 20:07:00,33.7,24.6,30.31,SE,134,1.0,8.0,69,0.00,,---,0.00,VWS V13.01,2013-12-01 01:07:00,
2013-11-30 20:12:00,33.7,24.6,30.30,SSE,151,4.0,7.0,69,0.00,,---,0.00,VWS V13.01,2013-12-01 01:12:00,
2013-11-30 20:17:00,33.6,24.5,30.30,SE,140,2.0,7.0,69,0.00,,---,0.00,VWS V13.01,2013-12-01 01:17:00,
2013-11-30 20:22:00,33.7,24.6,30.30,SSE,147,4.0,9.0,69,0.00,,---,0.00,VWS V13.01,2013-12-01 01:22:00,
2013-11-30 20:27:00,33.8,24.7,30.30,SE,125,1.0,9.0,69,0.00,,---,0.00,VWS V13.01,2013-12-01 01:27:00,
2013-11-30 20:32:00,33.8,24.7,30.30,SSE,155,2.0,7.0,69,0.00,,---,0.00,VWS V13.01,2013-12-01 01:32:00,
2013-11-30 20:37:00,33.9,24.8,30.30,SE,146,2.0,7.0,69,0.00,,---,0.00,VWS V13.01,2013-12-01 01:37:00,
2013-11-30 20:42:00,33.9,24.8,30.29,SE,134,2.0,8.0,69,0.00,,---,0.00,VWS V13.01,2013-12-01 01:42:00,
2013-11-30 20:43:00,33.9,24.8,30.29,SSE,161,2.0,8.0,69,0.00,,---,0.00,VWS V13.01,2013-12-01 01:43:00,
2013-11-30 20:48:00,34.0,24.6,30.29,SE,146,8.0,8.0,68,0.00,,---,0.00,VWS V13.01,2013-12-01 01:48:00,
2013-11-30 20:53:00,34.1,24.7,30.29,SE,134,4.0,6.0,68,0.00,,---,0.00,VWS V13.01,2013-12-01 01:53:00,
2013-11-30 20:58:00,34.1,24.7,30.29,SE,142,1.0,6.0,68,0.00,,---,0.00,VWS V13.01,2013-12-01 01:58:00,
2013-11-30 21:03:00,34.0,24.6,30.29,SE,140,2.0,7.0,68,0.00,,---,0.00,VWS V13.01,2013-12-01 02:03:00,
2013-11-30 21:08:00,33.9,24.8,30.29,SE,146,2.0,8.0,69,0.00,,---,0.00,VWS V13.01,2013-12-01 02:08:00,
2013-11-30 21:13:00,34.0,24.9,30.29,SE,128,2.0,6.0,69,0.00,,---,0.00,VWS V13.01,2013-12-01 02:13:00,
2013-11-30 21:18:00,34.0,24.9,30.28,SE,142,2.0,6.0,69,0.00,,---,0.00,VWS V13.01,2013-12-01 02:18:00,
2013-11-30 21:23:00,34.1,25.0,30.28,SSE,150,2.0,6.0,69,0.00,,---,0.00,VWS V13.01,2013-12-01 02:23:00,
2013-11-30 21:28:00,34.2,24.8,30.28,SE,146,3.0,6.0,68,0.00,,---,0.00,VWS V13.01,2013-12-01 02:28:00,
2013-11-30 21:33:00,34.3,24.9,30.28,ESE,119,1.0,6.0,68,0.00,,---,0.00,VWS V13.01,2013-12-01 02:33:00,
2013-11-30 21:38:00,34.4,25.0,30.28,SE,140,4.0,6.0,68,0.00,,---,0.00,VWS V13.01,2013-12-01 02:38:00,
2013-11-30 21:43:00,34.6,25.1,30.28,SE,130,0.0,4.0,68,0.00,,---,0.00,VWS V13.01,2013-12-01 02:43:00,
2013-11-30 21:48:00,34.6,25.5,30.27,SE,130,1.0,4.0,69,0.00,,---,0.00,VWS V13.01,2013-12-01 02:48:00,
2013-11-30 21:53:00,34.6,25.5,30.27,SE,135,0.0,2.0,69,0.00,,---,0.00,VWS V13.01,2013-12-01 02:53:00,
2013-11-30 21:58:00,34.6,25.5,30.28,SE,134,0.0,2.0,69,0.00,,---,0.00,VWS V13.01,2013-12-01 02:58:00,
2013-11-30 22:03:00,34.6,25.5,30.27,SE,135,1.0,2.0,69,0.00,,---,0.00,VWS V13.01,2013-12-01 03:03:00,
2013-11-30 22:08:00,34.5,25.4,30.27,SE,137,4.0,4.0,69,0.00,,---,0.00,VWS V13.01,2013-12-01 03:08:00,
2013-11-30 22:13:00,34.6,25.5,30.27,SE,141,2.0,4.0,69,0.00,,---,0.00,VWS V13.01,2013-12-01 03:13:00,
2013-11-30 22:18:00,34.8,25.7,30.27,SE,140,2.0,5.0,69,0.00,,---,0.00,VWS V13.01,2013-12-01 03:18:00,
2013-11-30 22:23:00,34.9,25.4,30.27,SSE,150,2.0,3.0,68,0.00,,---,0.00,VWS V13.01,2013-12-01 03:23:00,
2013-11-30 22:28:00,34.9,25.4,30.27,SSE,150,3.0,4.0,68,0.00,,---,0.00,VWS V13.01,2013-12-01 03:28:00,
2013-11-30 22:33:00,35.0,25.5,30.27,SSE,150,3.0,4.0,68,0.00,,---,0.00,VWS V13.01,2013-12-01 03:33:00,
2013-11-30 22:38:00,35.0,25.5,30.27,SSE,150,0.0,4.0,68,0.00,,---,0.00,VWS V13.01,2013-12-01 03:38:00,
2013-11-30 22:43:00,35.0,25.5,30.27,SSE,148,2.0,3.0,68,0.00,,---,0.00,VWS V13.01,2013-12-01 03:43:00,
2013-11-30 22:48:00,35.0,25.5,30.27,SSE,147,1.0,5.0,68,0.00,,---,0.00,VWS V13.01,2013-12-01 03:48:00,
2013-11-30 22:53:00,34.9,25.4,30.26,SSE,147,2.0,3.0,68,0.00,,---,0.00,VWS V13.01,2013-12-01 03:53:00,
2013-11-30 22:58:00,34.8,25.3,30.26,SE,146,0.0,4.0,68,0.00,,---,0.00,VWS V13.01,2013-12-01 03:58:00,
2013-11-30 23:03:00,34.7,25.2,30.26,SE,146,0.0,2.0,68,0.00,,---,0.00,VWS V13.01,2013-12-01 04:03:00,
2013-11-30 23:08:00,34.4,25.3,30.26,SE,146,0.0,2.0,69,0.00,,---,0.00,VWS V13.01,2013-12-01 04:08:00,
2013-11-30 23:13:00,34.1,25.0,30.26,SE,146,0.0,0.0,69,0.00,,---,0.00,VWS V13.01,2013-12-01 04:13:00,
2013-11-30 23:18:00,33.5,24.8,30.26,SE,146,0.0,0.0,70,0.00,,---,0.00,VWS V13.01,2013-12-01 04:18:00,
2013-11-30 23:23:00,33.0,24.6,30.26,SE,146,0.0,0.0,71,0.00,,---,0.00,VWS V13.01,2013-12-01 04:23:00,
2013-11-30 23:28:00,32.5,24.5,30.26,SE,146,0.0,0.0,72,0.00,,---,0.00,VWS V13.01,2013-12-01 04:28:00,
2013-11-30 23:33:00,32.0,24.3,30.26,SE,146,0.0,0.0,73,0.00,,---,0.00,VWS V13.01,2013-12-01 04:33:00,
2013-11-30 23:38:00,31.6,24.3,30.26,SE,146,0.0,0.0,74,0.00,,---,0.00,VWS V13.01,2013-12-01 04:38:00,
2013-11-30 23:43:00,31.1,24.1,30.26,SE,146,0.0,0.0,75,0.00,,---,0.00,VWS V13.01,2013-12-01 04:43:00,
2013-11-30 23:48:00,30.7,24.0,30.25,SE,146,0.0,0.0,76,0.00,,---,0.00,VWS V13.01,2013-12-01 04:48:00,
2013-11-30 23:53:00,30.5,23.9,30.25,SE,146,0.0,0.0,76,0.00,,---,0.00,VWS V13.01,2013-12-01 04:53:00,
2013-11-30 23:58:00,30.1,23.8,30.25,SE,146,0.0,1.0,77,0.00,,---,0.00,VWS V13.01,2013-12-01 04:58:00,